Flag for Germany Weather past 2 weeks in Titisee-Neustadt, Baden-Württemberg, Germany

Now
33 °F

Passing clouds.


Feels Like: 33 °F
Forecast: 25 / 30 °F
Wind: 1 mph from Northeast

Location: Freiburg

Current Time: Mar 4, 2015 at 9:37:08 PM

Latest Report: Mar 4, 2015 at 9:00 PM


Visibility: 28 mi

Pressure: 30.49 "Hg

Humidity: 77%

Dew point: 27 °F

Location of Titisee-NeustadtLocation

Historic Weather in Titisee-Neustadt — Graph

°F

Titisee-Neustadt temperature yesterday

Maximum temperature yesterday: 53 °F (at 3:00 PM)
Minimum temperature yesterday: 33 °F (at 8:00 AM)
Average temperature yesterday: 44 °F

Past Weeks' High & Low Weather Summary

 TemperatureHumidityPressure
High56 °F (Feb 20, 5:00 PM)99% (Feb 22, 5:00 AM)30.71 "Hg (Feb 22, 5:00 AM)
Low25 °F (Feb 20, 2:00 AM)27% (Feb 20, 8:00 PM)29.56 "Hg (Feb 23, 5:00 PM)
Average41 °F75%30.03 "Hg
* Reported Feb 18 12:00 Noon — Mar 4 8:00 PM, Titisee-Neustadt, Weather by CustomWeather, © 2015

Note: Actual official high and low records may vary slightly from our data, if they occured in-between our weather recording intervals... More about our weather records

Advertising

Titisee-Neustadt weather history for previous 24 hours

 ConditionsComfort  
Time TempWeatherWind HumidityBarometerVisibility
8:00 PM
Wed, Mar 4
39 °FPassing clouds.1 mph68%30.46 "Hg22 mi
6:00 PM42 °FScattered clouds.3 mph55%30.40 "Hg43 mi
5:00 PM44 °FPartly sunny.2 mph55%30.39 "Hg43 mi
3:00 PM44 °FOvercast.1 mph47%30.37 "Hg43 mi
2:00 PM44 °FOvercast.5 mph47%30.38 "Hg43 mi
12:00 PM43 °FPartly sunny.3 mph55%30.38 "Hg43 mi
11:00 AM42 °FOvercast.2 mph62%30.39 "Hg40 mi
9:00 AM40 °FOvercast.1 mph91%30.37 "Hg19 mi
8:00 AM36 °FOvercast.1 mph96%30.35 "Hg19 mi
6:00 AM37 °FPassing clouds.1 mph94%30.32 "Hg43 mi
5:00 AM39 °FOvercast.1 mph90%30.31 "Hg43 mi
3:00 AM40 °FLight rain. Overcast.1 mph77%30.29 "Hg28 mi
2:00 AM42 °FPassing clouds.2 mph78%30.27 "Hg43 mi
12:00 AM48 °FOvercast.8 mph56%30.21 "Hg43 mi
11:00 PM
Tue, Mar 3
49 °FOvercast.7 mph53%30.19 "Hg43 mi
9:00 PM48 °FOvercast.6 mph56%30.19 "Hg43 mi
Weather by CustomWeather, © 2015

See weather overviewHow to use our weather pages